Home > Weather > Bat Yam > Past weeks

Flag for Israel Weather for the Past 2 Weeks in Bat Yam, Israel

Now
64 °F

Sunny.


Feels Like: 64 °F
Forecast: 57 / 68 °F
Wind: 8 mph from Northwest

Location: Dov Airport

Current Time: Feb 12, 2016 at 4:03:10 PM

Latest Report: Feb 12, 2016 at 2:50 PM


Visibility: 10 mi

Pressure: 30.18 "Hg

Humidity: 60%

Dew point: 50 °F

Location of Bat YamLocation

Historic Weather in Bat Yam — Graph

°F

Bat Yam Temperature Yesterday

Maximum temperature yesterday: 63 °F (at 1:50 PM)
Minimum temperature yesterday: 52 °F (at 5:50 AM)
Average temperature yesterday: 58 °F

High & Low Weather Summary for the Past Weeks

 TemperatureHumidityPressure
High75 °F (Feb 4, 12:50 PM)94% (Feb 8, 6:50 AM)30.42 "Hg (Feb 8, 6:50 AM)
Low45 °F (Jan 28, 10:50 PM)22% (Feb 4, 12:50 PM)29.89 "Hg (Feb 7, 5:50 AM)
Average58 °F66%30.17 "Hg
* Reported Jan 28 2:50 PM — Feb 12 2:50 PM, Bat Yam, Weather by CustomWeather, © 2016

Note: Actual official high and low records may vary slightly from our data, if they occured in-between our weather recording intervals... More about our weather records

Advertising

Bat Yam Weather History for the Previous 24 Hours

 ConditionsComfort  
Time TempWeatherWind HumidityBarometerVisibility
2:50 PM
Fri, Feb 12
64 °FSunny.8 mph60%30.18 "Hg10 mi
1:50 PM64 °FSunny.7 mph64%30.18 "Hg10 mi
12:50 PM64 °FSunny.7 mph60%30.18 "Hg10 mi
11:50 AM63 °FSunny.7 mph68%30.21 "Hg10 mi
10:50 AM63 °FSunny.6 mph64%30.24 "Hg10 mi
9:50 AM63 °FSunny.2 mph59%30.24 "Hg10 mi
8:50 AM59 °FSunny.3 mph68%30.24 "Hg10 mi
7:50 AM54 °FSunny.5 mph77%30.24 "Hg10 mi
6:50 AM50 °FSunny.7 mph88%30.24 "Hg10 mi
5:50 AM50 °FClear.7 mph88%30.21 "Hg5 mi
10:50 PM
Thu, Feb 11
55 °FClear.3 mph82%30.24 "Hg10 mi
9:50 PM55 °FClear.3 mph82%30.24 "Hg10 mi
8:50 PM57 °FClear.3 mph77%30.24 "Hg10 mi
7:50 PM59 °FClear.2 mph77%30.24 "Hg10 mi
6:50 PM61 °FPassing clouds.6 mph68%30.24 "HgN/A
5:50 PM61 °FPassing clouds.6 mph68%30.24 "HgN/A
4:50 PM61 °FPassing clouds.9 mph68%30.21 "HgN/A
Weather by CustomWeather, © 2016

See weather overviewHow to use our weather pages